IRIDIUM 33 DEB

Satellite information

Favourite Embed

Satellite Type and Status

DEBRISIN ORBIT

Key statistics

Satellite IRIDIUM 33 DEB at a glance.

Uptime

10318

Days in orbit

Revolutions

≈ 14.4

Per day

Orbit

LEO

Low Earth Orbit

Inclination

86.3

Latest

Satellite identification and parameters

Extended collection of information and parameters for IRIDIUM 33 DEB.

Object identification

Identified? True

Debris? True

Object name: IRIDIUM 33 DEB

International designator: 1997-051NY

Object number (NORAD): 35052

Object ID (CCSDS): 35052

Country: UNITED STATES OF AMERICA (US)

Current information (Y/N): Y

RCS size: SMALL

Orbital parameters

Period: 100.105 minutes

Inclination: 86.3312 deg

SMA: 7141.628 km

Apoapsis: 773.263 km

Periapsis: 753.724 km

RAAN: 20.9917 deg

Eccentricy: 0.00136793

Argument of periapsis: 88.4217 deg

Mean anomaly: 271.8548 deg

Mean motion: 14.38490165 rev/day

Mean motion (dot): 0.00000858 rev/day2

B* drag term: 0.00027419057 1/REarth

Two-line elements (TLE)

Creation date: Dec. 11, 2025, 7:14 p.m.

Reference frame: TEME

Reference center: EARTH

Epoch: Dec. 11, 2025, 12:54 p.m. UTC

TLE line 0: 0 IRIDIUM 33 DEB

TLE line 1: 1 35052U 97051NY 25345.53781993 .00000858 00000-0 27419-3 0 9998

TLE line 2: 2 35052 86.3312 20.9917 0013679 88.4217 271.8548 14.38490165872580

Live tracking on map

Real-time ground track for satellite IRIDIUM 33 DEB.

In-orbit conjunctions

A list of the most updated potential collisions computed for object IRIDIUM 33 DEB.

Target Orbit TCA Probability of collision Miss distance Type
COSMOS 407 LEO 2025-10-29 00:19:04 0.0003493835 628.0 (m) PAYLOAD
CZ-6A DEB SSO 2025-08-08 01:15:39 0.0001732162 170.0 (m) DEBRIS
CZ-6A DEB SSO 2024-11-09 05:24:07 0.0002156554 906.0 (m) DEBRIS
DELTA 4 DEB SSO 2024-06-03 16:52:12 0.0003211002 523.0 (m) DEBRIS

Associated space launch

Iridium provides global mobile telecommunications services using a constellation of 66 low earth orbit satellites in a 86.4° inclined orbit. Although 77 satellites were originally envisioned for the system and spawned the name based on the 77th element in the periodic table, the system has been scaled back. Motorola's Satellite Communications Group designed and manufactured the Iridium satellites with Lockheed Martin providing the LM-700A spacecraft buses.

IRIDIUM 33 DEB was lifted into orbit during the mission ‘Proton-K/17S40 | Iridium 27 to 33’, on board a Proton-K/17S40 space rocket.

The launch took place on Sept. 14, 1997, 1:36 a.m. from 81/23 (81L).

For more information about the launch, click the button.

Launch to space Proton-K/17S40 | Iridium 27 to 33
Proton-K/17S40 | Iridium 27 to 33

Agency: N/A

Status: Launch Successful

Launch date: Sept. 14, 1997, 1:36 a.m. UTC

Rocket: Proton-K/17S40

Launch pad: 81/23 (81L)

Location: Baikonur Cosmodrome, Republic of Kazakhstan

...

Latest news about this satellite

There are no fresh news available about this satellite. Check back as we update our databases every day.


Newsletter sign-up

Weekly statistics, charts and insights to help you stay on top of the space industry.